Location: Baia Mare
(47.6567°N, 23.5850°E)
Time: 20:00:13
(UTC+03:00)

ISS - Pass Details

Date: 15 September 2018
Orbit: 403 x 408 km, 51.6° (Epoch: 26 September)

Event Time Altitude Azimuth Distance (km) Brightness Sun altitude
Exits shadow 05:59:50 16° 279° (W) 1,170 -2.0 -11.2°
Maximum altitude 06:02:10 40° 214° (SSW) 605 -3.3 -10.8°
Drops below altitude 10° 06:05:15 10° 142° (SE) 1,454 -0.7 -10.3°
Sets 06:07:23 0° 135° (SE) 2,309 0.4 -9.9°
